Location: Boiro
(42.6475°N, 8.8834°W)
Time: 11:15:56
(UTC+02:00)

SL-8 DEB - Pass Details

Date: 10 July 2022
Orbit: 890 x 1013 km, 83.1° (Epoch: 16 August)

Event Time Altitude Azimuth Distance (km) Brightness Sun altitude
Rises 02:00:05 0° 337° (NNW) 3,562 ? -24.4°
Reaches altitude 10° 02:03:18 10° 320° (NW) 2,597 ? -24.5°
Maximum altitude 02:07:10 19° 278° (W) 2,031 ? -24.6°
Enters shadow 02:09:56 13° 246° (WSW) 2,318 ? -24.7°
